Location: Larkspur
(54.4391°N, 113.7691°W)
Time: 22:49:22
(UTC+00:00)

METEOR M2 - Pass Details

Date: 03 December 2023
Orbit: 819 x 826 km, 98.4° (Epoch: 04 March)

Event Time Altitude Azimuth Distance (km) Brightness Sun altitude
Rises 12:22:18 0° 23° (NNE) 3,375 ? -26.8°
Reaches altitude 10° 12:25:12 10° 38° (NE) 2,436 ? -26.4°
Maximum altitude 12:29:23 23° 89° (E) 1,710 ? -25.8°
Drops below altitude 10° 12:33:32 10° 140° (SE) 2,418 ? -25.2°
Sets 12:36:23 0° 155° (SSE) 3,345 ? -24.8°
